Location: Oberkirch
(48.5323°N, 8.0787°E)
Time: 05:02:44
(UTC+00:00)

Tiros 1 - Pass Details

Date: 21 February 2026
Orbit: 618 x 650 km, 48.4° (Epoch: 13 March)

Event Time Altitude Azimuth Distance (km) Brightness Sun altitude
Rises 07:44:32 0° 240° (WSW) 2,914 10.2 11.3°
Reaches altitude 10° 07:46:53 10° 236° (SW) 2,003 9.5 11.7°
Maximum altitude 07:51:23 57° 159° (SSE) 741 8.1 12.3°
Drops below altitude 10° 07:55:52 10° 81° (E) 1,991 10.5 12.9°
Sets 07:58:12 0° 77° (ENE) 2,895 11.2 13.3°
